Terminal Aerodrome Forecast
Issued by NWS

Home | Current Version | Previous Version | Text Only | Print | Product List | Glossary On
Versions: 1 2 3 4 5 6 7 8 9 10 11 12 13 14 15 16
000
FTUS46 KMTR 042300
TAFMRY
TAF
KMRY 042330Z 0500/0524 25011KT P6SM OVC018
     FM050600 23008KT P6SM OVC015
     FM052100 26015KT P6SM OVC020=

USA.gov is the U.S. government's official web portal to all federal, state and local government web resources and services.